Satellite: STUDSAT
Catalog number: 36801
Epoch time:      10237.90438441
Element set:    0078
Inclination:      098.1453 deg
RA of node:       297.6512 deg
Eccentricity:    0.0014774
Arg of perigee:   134.7555 deg
Mean anomaly:     225.4857 deg
Mean motion:   14.79605380 rev/day
Decay rate:       8.01e-06 rev/day^2
Epoch rev:           00662
Checksum:              302

/EX
SB KEPS @ AMSAT  $ORB10238.W
Orbital Elements  10238.WEATHER

HR AMSAT ORBITAL ELEMENTS FOR WEATHER SATELLITES
FROM WA5QGD FORT WORTH,TX August 26, 2010
Send Subscribe/unsubscribe to KEPS at http://www.amsat.org/mailman/listinfo/keps
BID: ORB10238.W
TO ALL RADIO AMATEURS BT

Satellite: NOAA-10
Catalog number: 16969
Epoch time:      10237.68843933
Element set:    0180
Inclination:      098.6534 deg
RA of node:       265.9919 deg
Eccentricity:    0.0012633
Arg of perigee:   012.8942 deg
Mean anomaly:     347.2570 deg
Mean motion:   14.27425069 rev/day
Decay rate:        5.4e-07 rev/day^2
Epoch rev:           24549
Checksum:              327

Satellite: NOAA-11
Catalog number: 19531
Epoch time:      10237.82326346
Element set:    0192
Inclination:      098.7689 deg
RA of node:       325.6596 deg
Eccentricity:    0.0011042
Arg of perigee:   313.3440 deg
Mean anomaly:     046.6808 deg
Mean motion:   14.14932081 rev/day
Decay rate:      -2.21e-06 rev/day^2
Epoch rev:           13098
Checksum:              291

Satellite: NOAA-12
Catalog number: 21263
Epoch time:      10237.90280404
Element set:    0683
Inclination:      098.7649 deg
RA of node:       251.0552 deg
Eccentricity:    0.0011941
Arg of perigee:   328.5880 deg
Mean anomaly:     031.4574 deg
Mean motion:   14.25650221 rev/day
Decay rate:        2.5e-07 rev/day^2
Epoch rev:           00233
Checksum:              265

Satellite: MET-3/5
Catalog number: 21655
Epoch time:      10237.61573699
Element set:    0898
Inclination:      082.5539 deg
RA of node:       259.5805 deg
Eccentricity:    0.0013588
Arg of perigee:   169.8507 deg
Mean anomaly:     190.2850 deg
Mean motion:   13.17025045 rev/day
Decay rate:        5.1e-07 rev/day^2
Epoch rev:           91481
Checksum:              331

Satellite: MET-2/21
Catalog number: 22782
Epoch time:      10237.42326421
Element set:    0867
Inclination:      082.5470 deg
RA of node:       197.5099 deg
Eccentricity:    0.0021533
Arg of perigee:   204.7679 deg
Mean anomaly:     155.2443 deg
Mean motion:   13.83646354 rev/day
Decay rate:       -2.3e-07 rev/day^2
Epoch rev:           85765
Checksum:              314

Satellite: OKEAN-4
Catalog number: 23317
Epoch time:      10237.75849576
Element set:     321
Inclination:      082.5400 deg
RA of node:       288.9262 deg
Eccentricity:    0.0022711
Arg of perigee:   017.4056 deg
Mean anomaly:     342.7931 deg
Mean motion:   14.82850547 rev/day
Decay rate:        6.9e-07 rev/day^2
Epoch rev:           85676
Checksum:              313

Satellite: NOAA-14
Catalog number: 23455
Epoch time:      10237.71024022
Element set:    0173
Inclination:      098.8750 deg
RA of node:       317.9585 deg
Eccentricity:    0.0010057
Arg of perigee:   042.6016 deg
Mean anomaly:     317.5939 deg
Mean motion:   14.13791812 rev/day
Decay rate:       -5.0e-07 rev/day^2
Epoch rev:           80732
Checksum:              284

Satellite: NOAA-15
Catalog number: 25338
Epoch time:      10237.53429195
Element set:    0497
Inclination:      098.6245 deg
RA of node:       223.2361 deg
Eccentricity:    0.0009815
Arg of perigee:   229.8776 deg
Mean anomaly:     130.1532 deg
Mean motion:   14.24850193 rev/day
Decay rate:       -5.8e-07 rev/day^2
Epoch rev:           63862
Checksum:              317

Satellite: RESURS
Catalog number: 25394
Epoch time:      10238.74312747
Element set:     587
Inclination:      098.3052 deg
RA of node:       252.9820 deg
Eccentricity:    0.0002268
Arg of perigee:   039.6861 deg
Mean anomaly:     320.4471 deg
Mean motion:   14.24208300 rev/day
Decay rate:       -5.0e-08 rev/day^2
Epoch rev:           63039
Checksum:              281

Satellite: FENGYUN1
Catalog number: 25730
Epoch time:      10237.50959298
Element set:     120
Inclination:      098.7889 deg
RA of node:       200.6669 deg
Eccentricity:    0.0023428
Arg of perigee:   069.0186 deg
Mean anomaly:     291.3480 deg
Mean motion:   14.08260895 rev/day
Decay rate:       6.87e-06 rev/day^2
Epoch rev:           58144
Checksum:              330

Satellite: OKEAN-0
Catalog number: 25860
Epoch time:      10238.69252141
Element set:      82
Inclination:      097.8398 deg
RA of node:       209.0227 deg
Eccentricity:    0.0000893
Arg of perigee:   106.8830 deg
Mean anomaly:     253.2469 deg
Mean motion:   14.73657294 rev/day
Decay rate:        3.2e-07 rev/day^2
Epoch rev:           59728
Checksum:              313

Satellite: NOAA-16
Catalog number: 26536
Epoch time:      10237.57098825
Element set:    0975
Inclination:      099.1700 deg
RA of node:       256.6725 deg
Eccentricity:    0.0011109
Arg of perigee:   139.2429 deg
Mean anomaly:     220.9577 deg
Mean motion:   14.12572112 rev/day
Decay rate:      -2.61e-06 rev/day^2
Epoch rev:           51162
Checksum:              301

Satellite: NOAA-17
Catalog number: 27453
Epoch time:      10237.69024312
Element set:    0968
Inclination:      098.4256 deg
RA of node:       285.3148 deg
Eccentricity:    0.0010816
Arg of perigee:   296.4925 deg
Mean anomaly:     063.5148 deg
Mean motion:   14.24183271 rev/day
Decay rate:       -7.5e-07 rev/day^2
Epoch rev:           42459
Checksum:              318

Satellite: NOAA-18
Catalog number: 28654
Epoch time:      10237.70383718
Element set:    0454
Inclination:      098.9535 deg
RA of node:       183.7820 deg
Eccentricity:    0.0013674
Arg of perigee:   214.9924 deg
Mean anomaly:     145.0352 deg
Mean motion:   14.11381840 rev/day
Decay rate:       1.27e-06 rev/day^2
Epoch rev:           27124
Checksum:              304

Satellite: NOAA-19
Catalog number: 33591
Epoch time:      10237.70707380
Element set:    0652
Inclination:      098.7909 deg
RA of node:       178.3603 deg
Eccentricity:    0.0015167
Arg of perigee:   091.7495 deg
Mean anomaly:     268.5415 deg
Mean motion:   14.11076178 rev/day
Decay rate:      -1.85e-06 rev/day^2
Epoch rev:           07971
Checksum:              330

/EX
SB KEPS @ AMSAT  $ORB10238.M
Orbital Elements  10238.MISC

HR AMSAT ORBITAL ELEMENTS FOR MANNED AND MISCELLANEOUS SATELLITES
FROM WA5QGD FORT WORTH,TX August 26, 2010
Send Subscribe/unsubscribe to KEPS at http://www.amsat.org/mailman/listinfo/keps
BID: ORB10238.M
TO ALL RADIO AMATEURS BT

Satellite: HUBBLE
Catalog number: 20580
Epoch time:      10238.12944327
Element set:     634
Inclination:      028.4677 deg
RA of node:       143.2399 deg
Eccentricity:    0.0003640
Arg of perigee:   221.6409 deg
Mean anomaly:     138.3923 deg
Mean motion:   15.01021892 rev/day
Decay rate:       4.09e-06 rev/day^2
Epoch rev:           91527
Checksum:              280

Satellite: ISS
Catalog number: 25544
Epoch time:      10238.83028510
Element set:     776
Inclination:      051.6453 deg
RA of node:       229.1315 deg
Eccentricity:    0.0007611
Arg of perigee:   298.4323 deg
Mean anomaly:     130.7842 deg
Mean motion:   15.71273119 rev/day
Decay rate:     1.1443e-04 rev/day^2
Epoch rev:           67458
Checksum:              286

Satellite: CO-58
Catalog number: 28895
Epoch time:      10238.23310128
Element set:     665
Inclination:      098.0049 deg
RA of node:       120.3534 deg
Eccentricity:    0.0019096
Arg of perigee:   066.8453 deg
Mean anomaly:     293.4740 deg
Mean motion:   14.59923853 rev/day
Decay rate:        6.0e-07 rev/day^2
Epoch rev:           25720
Checksum:              312

Satellite: FALCON
Catalog number: 30776
Epoch time:      10238.66029448
Element set:     900
Inclination:      035.4348 deg
RA of node:       336.4022 deg
Eccentricity:    0.0001066
Arg of perigee:   013.2516 deg
Mean anomaly:     346.8228 deg
Mean motion:   15.03781811 rev/day
Decay rate:       6.35e-06 rev/day^2
Epoch rev:           19067
Checksum:              277

Satellite: MAST
Catalog number: 31126
Epoch time:      10238.57179781
Element set:     947
Inclination:      097.9323 deg
RA of node:       276.9245 deg
Eccentricity:    0.0095221
Arg of perigee:   007.9568 deg
Mean anomaly:     352.3148 deg
Mean motion:   14.53613809 rev/day
Decay rate:       1.24e-06 rev/day^2
Epoch rev:           17828
Checksum:              322

Satellite: CAPE1
Catalog number: 31130
Epoch time:      10237.65793534
Element set:    0969
Inclination:      097.9339 deg
RA of node:       273.3307 deg
Eccentricity:    0.0103068
Arg of perigee:   019.4341 deg
Mean anomaly:     341.0728 deg
Mean motion:   14.52213558 rev/day
Decay rate:       2.13e-06 rev/day^2
Epoch rev:           17774
Checksum:              295

Satellite: COMPASS
Catalog number: 32787
Epoch time:      10238.66109067
Element set:     759
Inclination:      097.8889 deg
RA of node:       302.4299 deg
Eccentricity:    0.0016776
Arg of perigee:   058.0344 deg
Mean anomaly:     302.2531 deg
Mean motion:   14.81945686 rev/day
Decay rate:       1.66e-06 rev/day^2
Epoch rev:           12593
Checksum:              336

Satellite: AAUSAT2
Catalog number: 32788
Epoch time:      10237.64456081
Element set:    0751
Inclination:      097.8889 deg
RA of node:       301.5701 deg
Eccentricity:    0.0016592
Arg of perigee:   062.0672 deg
Mean anomaly:     298.2192 deg
Mean motion:   14.82092659 rev/day
Decay rate:       3.31e-06 rev/day^2
Epoch rev:           12579
Checksum:              321

